FW2402 Weather Reports


time (UTC)temp
F
wind
direction
speed
knots
gust
knots
rain 1hr
in
rain 24hr
in
rain mn
in
humidity
%
barometer
mb
20260504141024 75 27 6.1 14.8 0.00 0.00 0.00 56 1016.8
20260504140516 75 34 6.1 14.8 0.00 0.00 0.00 56 1016.7
20260504130516 71 82 3.5 8.7 0.00 0.00 0.00 73 1016.5
20260504110515 58 0 0.0 0.0 0.00 0.00 0.00 93 1015.7
20260504100515 58 0 0.0 0.0 0.00 0.00 0.00 92 1015.3
20260504081540 58 0 0.0 0.0 0.00 0.00 0.00 92 1015.4
20260504081021 58 0 0.0 0.0 0.00 0.00 0.00 92 1015.4
20260504080518 58 0 0.0 0.0 0.00 0.00 0.00 92 1015.5
20260504050518 62 0 0.0 0.0 0.00 0.00 0.00 85 1016.5
20260504045517 62 0 0.0 0.0 0.00 0.00 0.00 84 1016.5
20260504045017 63 0 0.0 0.0 0.00 0.00 0.00 84 1016.8
20260504044537 63 0 0.0 0.0 0.00 0.00 0.00 83 1016.8
20260504044017 63 0 0.0 0.0 0.00 0.00 0.00 82 1016.8
20260504043526 63 0 0.0 0.0 0.00 0.00 0.00 82 1016.8
20260504043039 63 0 0.0 0.0 0.00 0.00 0.00 81 1017.0
20260504042516 64 0 0.0 0.0 0.00 0.00 0.00 79 1017.0
20260504042017 65 0 0.0 0.0 0.00 0.00 0.00 78 1016.9
20260504041534 65 0 0.0 0.0 0.00 0.00 0.00 77 1016.9
20260504041017 66 0 0.0 1.7 0.00 0.00 0.00 76 1016.7
20260504040518 66 0 0.0 1.7 0.00 0.00 0.00 76 1017.0
20260504040035 66 80 0.9 2.6 0.00 0.00 0.00 76 1016.9
20260504035521 66 81 0.0 3.5 0.00 0.00 0.00 76 1016.9
20260504035018 66 0 0.0 3.5 0.00 0.00 0.00 75 1017.0
20260504034553 66 84 0.9 2.6 0.00 0.00 0.00 75 1017.0
20260504034017 66 81 0.9 2.6 0.00 0.00 0.00 75 1016.9
20260504033517 67 39 0.9 3.5 0.00 0.00 0.00 74 1016.9
20260504033050 67 63 0.9 3.5 0.00 0.00 0.00 74 1016.9
20260504032517 67 52 0.9 5.2 0.00 0.00 0.00 74 1017.0
20260504032018 67 72 1.7 5.2 0.00 0.00 0.00 74 1016.8
20260504031532 67 59 1.7 6.1 0.00 0.00 0.00 74 1016.9
20260504031017 67 89 1.7 6.1 0.00 0.00 0.00 73 1016.8
20260504030518 67 77 1.7 5.2 0.00 0.00 0.00 73 1016.9
20260504030043 67 69 1.7 4.3 0.00 0.00 0.00 73 1016.7
20260504025517 67 67 2.6 4.3 0.00 0.00 0.00 73 1016.6
20260504025018 67 57 1.7 6.1 0.00 0.00 0.00 73 1016.7
20260504024542 67 46 1.7 6.1 0.00 0.00 0.00 72 1016.7
20260504024017 68 78 2.6 6.1 0.00 0.00 0.00 72 1016.6
20260504023517 68 97 2.6 5.2 0.00 0.00 0.00 72 1016.6
20260504023036 68 55 2.6 6.1 0.00 0.00 0.00 72 1016.6
20260504022521 68 58 3.5 7.0 0.00 0.00 0.00 72 1016.6
20260504022017 68 74 3.5 7.0 0.00 0.00 0.00 71 1016.6
20260504021543 68 93 4.3 7.0 0.00 0.00 0.00 71 1016.4
20260504021017 68 63 3.5 8.7 0.00 0.00 0.00 71 1016.5
20260504020517 68 69 3.5 8.7 0.00 0.00 0.00 71 1016.5
20260504020032 68 92 4.3 8.7 0.00 0.00 0.00 71 1016.4
20260504015517 68 73 2.6 7.8 0.00 0.00 0.00 70 1016.3
20260504015019 69 65 3.5 8.7 0.00 0.00 0.00 70 1016.3
20260504014539 69 67 5.2 9.6 0.00 0.00 0.00 70 1016.2
20260504014022 69 54 4.3 9.6 0.00 0.00 0.00 69 1016.2
20260504013519 69 66 5.2 9.6 0.00 0.00 0.00 69 1016.1
20260504013038 69 54 3.5 7.8 0.00 0.00 0.00 69 1016.0
20260504012517 69 68 2.6 7.8 0.00 0.00 0.00 68 1015.9
20260504012020 69 60 3.5 8.7 0.00 0.00 0.00 68 1015.8
20260504011535 70 48 4.3 9.6 0.00 0.00 0.00 67 1015.8
20260504011016 70 82 4.3 9.6 0.00 0.00 0.00 67 1015.7
20260504010516 70 59 4.3 9.6 0.00 0.00 0.00 67 1015.7
20260504010031 70 72 4.3 10.4 0.00 0.00 0.00 66 1015.6
20260504005517 70 49 3.5 10.4 0.00 0.00 0.00 65 1015.6
20260504005017 71 64 5.2 10.4 0.00 0.00 0.00 64 1015.6
20260504004541 71 92 4.3 9.6 0.00 0.00 0.00 64 1015.5
20260504004018 71 76 3.5 8.7 0.00 0.00 0.00 63 1015.5
20260504003518 71 61 3.5 8.7 0.00 0.00 0.00 63 1015.6
20260504003042 71 64 3.5 8.7 0.00 0.00 0.00 62 1015.6
20260504002516 72 34 2.6 6.1 0.00 0.00 0.00 61 1015.6
20260504002017 72 67 2.6 6.1 0.00 0.00 0.00 61 1015.4
20260504001536 72 59 2.6 7.0 0.00 0.00 0.00 61 1015.3
20260504001019 73 55 2.6 7.0 0.00 0.00 0.00 60 1015.2
20260504000517 73 22 2.6 7.8 0.00 0.00 0.00 60 1015.2
20260504000042 73 82 3.5 7.8 0.00 0.00 0.00 59 1015.1
20260503235517 74 71 2.6 5.2 0.00 0.00 0.00 58 1015.0
20260503235017 74 76 2.6 7.0 0.00 0.00 0.00 57 1014.9
20260503234535 74 35 2.6 7.0 0.00 0.00 0.00 57 1014.9
20260503234017 75 85 4.3 9.6 0.00 0.00 0.00 56 1014.9
20260503233517 75 42 3.5 9.6 0.00 0.00 0.00 56 1014.9
20260503233038 76 71 4.3 9.6 0.00 0.00 0.00 54 1014.9
20260503232516 76 63 5.2 8.7 0.00 0.00 0.00 54 1014.9
20260503232016 77 61 3.5 7.8 0.00 0.00 0.00 52 1014.8
20260503231531 78 59 3.5 9.6 0.00 0.00 0.00 52 1014.7
20260503231019 77 46 2.6 9.6 0.00 0.00 0.00 52 1014.7
20260503230517 78 46 4.3 9.6 0.00 0.00 0.00 51 1014.7
20260503230038 77 47 4.3 7.8 0.00 0.00 0.00 51 1014.7
20260503225516 78 28 4.3 7.8 0.00 0.00 0.00 51 1014.6
20260503225021 78 13 2.6 7.8 0.00 0.00 0.00 51 1014.7
20260503224536 79 74 2.6 7.0 0.00 0.00 0.00 50 1014.7
20260503224017 78 85 4.3 9.6 0.00 0.00 0.00 50 1014.7
20260503223517 79 80 5.2 9.6 0.00 0.00 0.00 48 1014.7
20260503223036 81 80 0.9 7.8 0.00 0.00 0.00 47 1014.8
20260503222516 79 84 3.5 7.8 0.00 0.00 0.00 49 1014.8
20260503222016 80 37 3.5 8.7 0.00 0.00 0.00 47 1014.8
20260503221538 79 71 2.6 8.7 0.00 0.00 0.00 50 1014.9
20260503221018 79 86 5.2 8.7 0.00 0.00 0.00 50 1014.8
20260503220517 79 71 2.6 7.0 0.00 0.00 0.00 49 1014.7
20260503220043 78 113 3.5 6.1 0.00 0.00 0.00 50 1014.7
20260503215517 79 57 1.7 8.7 0.00 0.00 0.00 50 1014.8
20260503215016 80 82 3.5 8.7 0.00 0.00 0.00 49 1014.7
20260503214541 79 74 4.3 8.7 0.00 0.00 0.00 49 1014.7
20260503214016 79 65 4.3 9.6 0.00 0.00 0.00 50 1014.7
20260503213519 80 49 5.2 9.6 0.00 0.00 0.00 48 1014.7
20260503213040 80 35 2.6 7.8 0.00 0.00 0.00 49 1014.6
20260503212517 80 29 3.5 9.6 0.00 0.00 0.00 49 1014.6
20260503212017 80 88 5.2 9.6 0.00 0.00 0.00 50 1014.5
20260503211536 80 101 1.7 8.7 0.00 0.00 0.00 48 1014.6
20260503211016 80 63 2.6 7.8 0.00 0.00 0.00 48 1014.6
20260503210516 80 15 0.9 8.7 0.00 0.00 0.00 49 1014.7
20260503210036 80 30 2.6 8.7 0.00 0.00 0.00 49 1014.7
20260503205517 80 49 3.5 8.7 0.00 0.01 0.00 48 1014.7
20260503205017 81 94 4.3 8.7 0.00 0.01 0.00 48 1014.8
20260503204535 82 84 4.3 8.7 0.00 0.01 0.00 46 1014.8
20260503204016 81 284 0.0 6.1 0.00 0.01 0.00 49 1014.8
20260503203519 80 40 1.7 8.7 0.00 0.01 0.00 50 1014.9
20260503203044 79 65 3.5 9.6 0.00 0.01 0.00 47 1015.1
20260503202517 78 65 4.3 9.6 0.00 0.01 0.00 50 1015.0
20260503202019 79 70 5.2 13.0 0.00 0.01 0.00 48 1015.1
20260503201542 80 67 7.0 13.0 0.00 0.01 0.00 47 1015.2
20260503201019 81 108 1.7 7.8 0.00 0.01 0.00 48 1015.2
20260503200516 78 59 2.6 10.4 0.00 0.01 0.00 52 1015.2
20260503200034 77 61 3.5 10.4 0.00 0.01 0.00 52 1015.2
20260503195518 79 23 3.5 8.7 0.00 0.12 0.00 52 1015.3
20260503195017 79 62 1.7 7.8 0.00 0.12 0.00 52 1015.3
20260503194539 77 72 2.6 10.4 0.00 0.12 0.00 52 1015.5
20260503194016 79 59 6.1 10.4 0.00 0.12 0.00 50 1015.6
20260503193519 79 136 2.6 6.1 0.00 0.12 0.00 51 1015.7
20260503193038 79 95 1.7 7.0 0.00 0.12 0.00 49 1015.9
20260503192517 80 47 2.6 7.8 0.00 0.12 0.00 49 1016.0
20260503192016 79 85 3.5 12.2 0.00 0.12 0.00 51 1016.0
20260503191535 78 99 3.5 12.2 0.00 0.12 0.00 50 1016.1
20260503191017 80 69 2.6 8.7 0.00 0.12 0.00 49 1016.3
20260503190517 79 97 4.3 8.7 0.00 0.12 0.00 53 1016.3
20260503190035 78 28 3.5 7.8 0.00 0.12 0.00 53 1016.4
20260503185516 79 59 3.5 7.8 0.00 0.25 0.00 51 1016.4
20260503185016 80 115 1.7 7.8 0.00 0.25 0.00 49 1016.5
20260503184548 80 76 3.5 7.8 0.00 0.25 0.00 50 1016.6
20260503184017 79 346 2.6 7.8 0.00 0.25 0.00 52 1016.6
20260503183517 77 51 2.6 10.4 0.00 0.25 0.00 56 1016.7
20260503183044 78 101 2.6 10.4 0.00 0.25 0.00 53 1016.7
20260503182516 78 75 3.5 10.4 0.00 0.25 0.00 53 1017.0
20260503182016 77 65 4.3 9.6 0.00 0.25 0.00 54 1017.0
20260503181537 77 90 3.5 11.3 0.00 0.25 0.00 57 1016.9
20260503181017 76 71 2.6 11.3 0.00 0.25 0.00 57 1016.9
20260503180516 79 78 4.3 11.3 0.00 0.25 0.00 55 1017.0
20260503180038 76 87 3.5 10.4 0.00 0.25 0.00 61 1017.1
20260503175515 75 74 2.6 10.4 0.00 0.25 0.00 60 1017.1
20260503175016 77 26 5.2 10.4 0.00 0.25 0.00 56 1017.1
20260503174535 77 272 2.6 9.6 0.00 0.25 0.00 58 1017.2
20260503174023 75 0 1.7 10.4 0.00 0.25 0.00 62 1017.3
20260503173521 76 49 2.6 10.4 0.00 0.25 0.00 60 1017.2
20260503173037 76 84 2.6 11.3 0.00 0.25 0.00 60 1017.3
20260503172519 77 48 3.5 11.3 0.00 0.25 0.00 61 1017.3
20260503172016 75 70 3.5 11.3 0.00 0.25 0.00 61 1017.5
20260503171603 75 82 5.2 10.4 0.00 0.25 0.00 59 1017.4
20260503171016 78 129 4.3 11.3 0.00 0.25 0.00 58 1017.4
20260503170516 76 25 3.5 11.3 0.00 0.25 0.00 61 1017.5
20260503150516 70 42 5.2 11.3 0.00 0.25 0.00 71 1018.0